When you browse on this site, cookies collect data to enhance your experience and personalize the content and advertising you see.
Visit our Privacy Policy to learn more. By continuing to use the site, you agree to this use of cookies and data.
  • In Portugal
  • List of Countries
  • For 7 days
  • Water Temperature
  • Weather Map
  • Weather Widgets
  • user-avatar
    Login

    Hourly Weather Mbandaka

    Today, 23 September, Monday

    Time Temperature Precipitation Wind Pressure Humidity
    00:00 +24°C° 0 mm 0 mps 730 mmHg 74%
    01:00 +24°C° 0 mm 0 mps 730 mmHg 76%
    02:00 +23°C° 0 mm 0 mps 730 mmHg 76%
    03:00 +23°C° 0 mm 0 mps 730 mmHg 76%
    04:00 +25°C° 0 mm 1 mps 730 mmHg 77%
    05:00 +24°C° 0 mm 0 mps 730 mmHg 76%
    06:00 +24°C° 0 mm 0 mps 731 mmHg 75%
    07:00 +25°C° 0 mm 0 mps 731 mmHg 72%
    08:00 +28°C° 0 mm 0 mps 731 mmHg 64%
    09:00 +32°C° 0 mm 1 mps 731 mmHg 56%
    10:00 +35°C° 0 mm 1 mps 731 mmHg 48%
    11:00 +35°C° 0 mm 1 mps 731 mmHg 46%
    12:00 +36°C° 0 mm 1 mps 730 mmHg 43%
    13:00 +36°C° 0 mm 1 mps 729 mmHg 41%
    14:00 +34°C° 0 mm 0 mps 729 mmHg 43%
    15:00 +33°C° 0 mm 0 mps 728 mmHg 45%
    16:00 +33°C° 0 mm 0 mps 728 mmHg 47%
    17:00 +31°C° 0 mm 0 mps 728 mmHg 53%
    18:00 +29°C° 0 mm 0 mps 729 mmHg 59%
    19:00 +27°C° 0 mm 0 mps 729 mmHg 65%
    20:00 +26°C° 0.5 mm 0 mps 729 mmHg 71%
    21:00 +26°C° 0.5 mm 0 mps 730 mmHg 76%
    22:00 +25°C° 0.5 mm 0 mps 730 mmHg 81%
    23:00 +24°C° 0.2 mm 0 mps 730 mmHg 84%

    Tomorrow, 24 September, Tuesday

    Time Temperature Precipitation Wind Pressure Humidity
    00:00 +24°C° 0.2 mm 0 mps 730 mmHg 86%
    01:00 +23°C° 0.2 mm 0 mps 730 mmHg 88%
    02:00 +25°C° 0 mm 1 mps 730 mmHg 89%
    03:00 +25°C° 0 mm 1 mps 730 mmHg 91%
    04:00 +25°C° 0 mm 1 mps 730 mmHg 92%
    05:00 +25°C° 0 mm 1 mps 730 mmHg 90%
    06:00 +26°C° 0 mm 1 mps 731 mmHg 89%
    07:00 +26°C° 0 mm 2 mps 732 mmHg 87%
    08:00 +29°C° 0 mm 2 mps 732 mmHg 77%
    09:00 +31°C° 0 mm 2 mps 732 mmHg 67%
    10:00 +34°C° 0 mm 2 mps 732 mmHg 56%
    11:00 +34°C° 0.2 mm 1 mps 731 mmHg 53%
    12:00 +35°C° 0.2 mm 1 mps 730 mmHg 49%
    13:00 +34°C° 0.2 mm 0 mps 729 mmHg 46%
    14:00 +34°C° 0 mm 0 mps 729 mmHg 47%
    15:00 +33°C° 0 mm 0 mps 728 mmHg 49%
    16:00 +34°C° 0 mm 1 mps 728 mmHg 51%
    17:00 +33°C° 0 mm 1 mps 728 mmHg 57%
    18:00 +31°C° 0 mm 1 mps 728 mmHg 64%
    19:00 +29°C° 0 mm 1 mps 728 mmHg 71%
    20:00 +28°C° 0 mm 1 mps 728 mmHg 73%
    21:00 +28°C° 0 mm 1 mps 729 mmHg 75%
    22:00 +27°C° 0 mm 1 mps 729 mmHg 77%
    23:00 +27°C° 0.2 mm 1 mps 729 mmHg 81%

    Day after tomorrow, 25 September, Wednesday

    Time Temperature Precipitation Wind Pressure Humidity
    00:00 +26°C° 0.2 mm 1 mps 729 mmHg 85%
    01:00 +26°C° 0.2 mm 1 mps 729 mmHg 89%
    02:00 +25°C° 0.8 mm 1 mps 729 mmHg 91%
    03:00 +25°C° 0.8 mm 2 mps 730 mmHg 93%
    04:00 +24°C° 0.8 mm 2 mps 730 mmHg 95%
    05:00 +25°C° 1.3 mm 2 mps 730 mmHg 95%
    06:00 +25°C° 1.3 mm 2 mps 731 mmHg 94%
    07:00 +25°C° 1.3 mm 2 mps 732 mmHg 93%
    08:00 +26°C° 1.3 mm 2 mps 732 mmHg 91%
    09:00 +27°C° 1.3 mm 3 mps 732 mmHg 88%
    10:00 +28°C° 1.3 mm 4 mps 732 mmHg 85%
    11:00 +29°C° 0.5 mm 3 mps 732 mmHg 78%
    12:00 +30°C° 0.5 mm 3 mps 731 mmHg 72%
    13:00 +31°C° 0.5 mm 3 mps 731 mmHg 65%
    14:00 +31°C° 0 mm 2 mps 730 mmHg 65%
    15:00 +31°C° 0 mm 1 mps 729 mmHg 64%
    16:00 +31°C° 0 mm 1 mps 728 mmHg 64%
    17:00 +30°C° 0 mm 1 mps 729 mmHg 70%
    18:00 +28°C° 0 mm 1 mps 729 mmHg 76%
    19:00 +27°C° 0 mm 1 mps 729 mmHg 82%
    20:00 +27°C° 0 mm 1 mps 730 mmHg 82%
    21:00 +24°C° 0 mm 0 mps 731 mmHg 83%
    22:00 +24°C° 0 mm 0 mps 731 mmHg 84%
    23:00 +24°C° 0.4 mm 0 mps 731 mmHg 85%

    26 September, Thursday

    Time Temperature Precipitation Wind Pressure Humidity
    00:00 +26°C° 0.4 mm 1 mps 731 mmHg 87%
    01:00 +25°C° 0.4 mm 1 mps 731 mmHg 88%
    02:00 +25°C° 0.2 mm 1 mps 731 mmHg 89%
    03:00 +25°C° 0.2 mm 1 mps 731 mmHg 90%
    04:00 +23°C° 0.2 mm 0 mps 731 mmHg 91%
    05:00 +23°C° 0.5 mm 0 mps 731 mmHg 91%
    06:00 +25°C° 0.5 mm 1 mps 732 mmHg 91%
    07:00 +25°C° 0.5 mm 1 mps 733 mmHg 91%
    08:00 +25°C° 1.6 mm 1 mps 733 mmHg 91%
    09:00 +25°C° 1.6 mm 2 mps 733 mmHg 92%
    10:00 +26°C° 1.6 mm 2 mps 733 mmHg 93%
    11:00 +25°C° 0.5 mm 2 mps 732 mmHg 92%
    12:00 +25°C° 0.5 mm 2 mps 732 mmHg 92%
    13:00 +25°C° 0.5 mm 2 mps 731 mmHg 92%
    14:00 +25°C° 0 mm 2 mps 730 mmHg 88%
    15:00 +26°C° 0 mm 2 mps 730 mmHg 85%
    16:00 +26°C° 0 mm 2 mps 729 mmHg 82%
    17:00 +26°C° 0 mm 1 mps 730 mmHg 85%
    18:00 +25°C° 0 mm 1 mps 730 mmHg 88%
    19:00 +22°C° 0 mm 0 mps 730 mmHg 91%
    20:00 +22°C° 0 mm 0 mps 731 mmHg 92%
    21:00 +22°C° 0 mm 0 mps 731 mmHg 93%
    22:00 +22°C° 0 mm 0 mps 732 mmHg 94%
    23:00 +22°C° 0 mm 0 mps 732 mmHg 95%

    27 September, Friday

    Time Temperature Precipitation Wind Pressure Humidity
    00:00 +22°C° 0 mm 0 mps 731 mmHg 95%
    01:00 +24°C° 0 mm 1 mps 731 mmHg 95%
    02:00 +23°C° 0 mm 1 mps 731 mmHg 95%
    03:00 +23°C° 0 mm 1 mps 731 mmHg 95%
    04:00 +21°C° 0 mm 0 mps 731 mmHg 94%
    05:00 +22°C° 0 mm 0 mps 732 mmHg 92%
    06:00 +22°C° 0 mm 0 mps 732 mmHg 91%
    07:00 +22°C° 0 mm 0 mps 733 mmHg 89%
    08:00 +24°C° 0 mm 0 mps 733 mmHg 81%
    09:00 +27°C° 0 mm 1 mps 733 mmHg 74%
    10:00 +29°C° 0 mm 2 mps 733 mmHg 66%
    11:00 +31°C° 0 mm 1 mps 732 mmHg 60%
    12:00 +32°C° 0 mm 1 mps 731 mmHg 54%
    13:00 +34°C° 0 mm 1 mps 730 mmHg 48%
    14:00 +32°C° 0.1 mm 1 mps 729 mmHg 55%
    15:00 +31°C° 0.1 mm 2 mps 729 mmHg 61%
    16:00 +30°C° 0.1 mm 2 mps 729 mmHg 68%
    17:00 +28°C° 0.4 mm 2 mps 729 mmHg 76%
    18:00 +27°C° 0.4 mm 1 mps 730 mmHg 84%
    19:00 +25°C° 0.4 mm 1 mps 730 mmHg 92%
    20:00 +25°C° 0.1 mm 1 mps 731 mmHg 92%
    21:00 +25°C° 0.1 mm 1 mps 731 mmHg 93%
    22:00 +24°C° 0.1 mm 1 mps 731 mmHg 94%
    23:00 +24°C° 0 mm 1 mps 731 mmHg 94%

    28 September, Saturday

    Time Temperature Precipitation Wind Pressure Humidity
    00:00 +24°C° 0 mm 1 mps 731 mmHg 94%
    01:00 +24°C° 0 mm 1 mps 730 mmHg 95%
    02:00 +24°C° 0 mm 1 mps 730 mmHg 95%
    03:00 +24°C° 0 mm 1 mps 730 mmHg 95%
    04:00 +23°C° 0 mm 2 mps 730 mmHg 96%
    05:00 +24°C° 0 mm 2 mps 731 mmHg 94%
    06:00 +24°C° 0 mm 2 mps 731 mmHg 92%
    07:00 +25°C° 0 mm 2 mps 732 mmHg 90%
    08:00 +27°C° 0 mm 2 mps 732 mmHg 80%
    09:00 +29°C° 0 mm 2 mps 732 mmHg 69%
    10:00 +31°C° 0 mm 2 mps 732 mmHg 59%
    11:00 +31°C° 1.3 mm 2 mps 731 mmHg 66%
    12:00 +30°C° 1.3 mm 2 mps 730 mmHg 72%
    13:00 +30°C° 1.3 mm 2 mps 730 mmHg 79%
    14:00 +29°C° 2.4 mm 2 mps 729 mmHg 84%
    15:00 +27°C° 2.4 mm 2 mps 729 mmHg 88%
    16:00 +26°C° 2.4 mm 2 mps 729 mmHg 92%
    17:00 +26°C° 0.3 mm 2 mps 729 mmHg 93%
    18:00 +25°C° 0.3 mm 1 mps 730 mmHg 95%
    19:00 +24°C° 0.3 mm 1 mps 730 mmHg 96%
    20:00 +24°C° 0 mm 1 mps 730 mmHg 96%
    21:00 +24°C° 0 mm 1 mps 731 mmHg 96%
    22:00 +24°C° 0 mm 1 mps 731 mmHg 95%
    23:00 +24°C° 0 mm 1 mps 731 mmHg 95%
    Show more